Time,TemperatureF,DewpointF,PressureIn,WindDirection,WindDirectionDegrees,WindSpeedMPH,WindSpeedGustMPH,Humidity,HourlyPrecipIn,Conditions,Clouds,dailyrainin,SolarRadiationWatts/m^2,SoftwareType,DateUTC
2013-03-11 00:04:00,48.8,39.4,30.18,ESE,121,0.0,0.0,70,0.00,,,0.00,0,Wunderground v.1.15,2013-03-11 07:04:00,
2013-03-11 00:10:00,48.7,39.4,30.18,ESE,121,0.0,0.0,70,0.00,,,0.00,0,Wunderground v.1.15,2013-03-11 07:10:00,
2013-03-11 00:16:00,48.5,39.5,30.18,ESE,121,0.0,0.0,71,0.00,,,0.00,0,Wunderground v.1.15,2013-03-11 07:16:00,
2013-03-11 00:22:00,48.3,39.3,30.18,ESE,121,0.0,0.0,71,0.00,,,0.00,0,Wunderground v.1.15,2013-03-11 07:22:00,
2013-03-11 00:28:00,48.2,39.6,30.18,ESE,121,0.0,0.0,72,0.00,,,0.00,0,Wunderground v.1.15,2013-03-11 07:28:00,
2013-03-11 00:34:00,48.0,39.8,30.18,ESE,121,0.0,0.0,73,0.00,,,0.00,0,Wunderground v.1.15,2013-03-11 07:34:00,
2013-03-11 00:40:00,48.0,40.1,30.18,ESE,121,0.0,0.0,74,0.00,,,0.00,0,Wunderground v.1.15,2013-03-11 07:40:00,
2013-03-11 00:46:00,48.1,40.5,30.18,ESE,121,0.0,0.0,75,0.00,,,0.00,0,Wunderground v.1.15,2013-03-11 07:46:00,
2013-03-11 00:52:00,48.2,40.6,30.18,ESE,121,0.0,0.0,75,0.00,,,0.00,0,Wunderground v.1.15,2013-03-11 07:52:00,
2013-03-11 00:58:00,48.3,40.7,30.18,ESE,121,0.0,0.0,75,0.00,,,0.00,0,Wunderground v.1.15,2013-03-11 07:58:00,
2013-03-11 01:04:00,48.2,41.0,30.17,ESE,121,0.0,0.0,76,0.00,,,0.00,0,Wunderground v.1.15,2013-03-11 08:04:00,
2013-03-11 01:10:00,48.0,40.8,30.18,ESE,121,0.0,0.0,76,0.00,,,0.00,0,Wunderground v.1.15,2013-03-11 08:10:00,
2013-03-11 01:16:00,47.6,40.4,30.18,ESE,121,0.0,0.0,76,0.00,,,0.00,0,Wunderground v.1.15,2013-03-11 08:16:00,
2013-03-11 01:22:00,47.3,40.8,30.18,ESE,121,0.0,0.0,78,0.00,,,0.00,0,Wunderground v.1.15,2013-03-11 08:22:00,
2013-03-11 01:28:00,47.2,41.0,30.17,ESE,121,0.0,0.0,79,0.00,,,0.00,0,Wunderground v.1.15,2013-03-11 08:28:00,
2013-03-11 01:34:00,47.1,41.2,30.18,ESE,121,0.0,0.0,80,0.00,,,0.00,0,Wunderground v.1.15,2013-03-11 08:34:00,
2013-03-11 01:40:00,47.1,41.2,30.18,ESE,121,0.0,0.0,80,0.00,,,0.00,0,Wunderground v.1.15,2013-03-11 08:40:00,
2013-03-11 01:46:00,46.9,41.1,30.18,ESE,121,0.0,0.0,80,0.00,,,0.00,0,Wunderground v.1.15,2013-03-11 08:46:00,
2013-03-11 01:52:00,46.7,41.2,30.18,ESE,121,0.0,0.0,81,0.00,,,0.00,0,Wunderground v.1.15,2013-03-11 08:52:00,
2013-03-11 01:58:00,46.6,41.1,30.19,ESE,121,0.0,0.0,81,0.00,,,0.00,0,Wunderground v.1.15,2013-03-11 08:58:00,
2013-03-11 02:04:00,46.5,41.0,30.19,ESE,121,0.0,0.0,81,0.00,,,0.00,0,Wunderground v.1.15,2013-03-11 09:04:00,
2013-03-11 02:10:00,46.3,40.8,30.19,ESE,121,0.0,0.0,81,0.00,,,0.00,0,Wunderground v.1.15,2013-03-11 09:10:00,
2013-03-11 02:16:00,46.1,40.6,30.18,ESE,121,0.0,0.0,81,0.00,,,0.00,0,Wunderground v.1.15,2013-03-11 09:16:00,
2013-03-11 02:22:00,45.9,40.4,30.18,ESE,121,0.0,0.0,81,0.00,,,0.00,0,Wunderground v.1.15,2013-03-11 09:22:00,
2013-03-11 02:28:00,45.7,40.2,30.18,ESE,121,0.0,0.0,81,0.00,,,0.00,0,Wunderground v.1.15,2013-03-11 09:28:00,
2013-03-11 02:34:00,45.5,40.3,30.18,ESE,121,0.0,0.0,82,0.00,,,0.00,0,Wunderground v.1.15,2013-03-11 09:34:00,
2013-03-11 02:40:00,45.3,40.1,30.18,ESE,121,0.0,0.0,82,0.00,,,0.00,0,Wunderground v.1.15,2013-03-11 09:40:00,
2013-03-11 02:48:00,45.1,39.9,30.18,ESE,121,0.0,0.0,82,0.00,,,0.00,0,Wunderground v.1.15,2013-03-11 09:48:00,
2013-03-11 02:54:00,44.9,40.0,30.18,ESE,121,0.0,0.0,83,0.00,,,0.00,0,Wunderground v.1.15,2013-03-11 09:54:00,
2013-03-11 03:00:00,44.7,39.9,30.18,ESE,121,0.0,0.0,83,0.00,,,0.00,0,Wunderground v.1.15,2013-03-11 10:00:00,
2013-03-11 03:06:00,44.6,39.8,30.18,ESE,121,0.0,0.0,83,0.00,,,0.00,0,Wunderground v.1.15,2013-03-11 10:06:00,
2013-03-11 03:12:00,44.6,39.8,30.19,ESE,121,0.0,0.0,83,0.00,,,0.00,0,Wunderground v.1.15,2013-03-11 10:12:00,
2013-03-11 03:18:00,44.5,39.7,30.19,ESE,121,0.0,0.0,83,0.00,,,0.00,0,Wunderground v.1.15,2013-03-11 10:18:00,
2013-03-11 03:24:00,44.5,39.7,30.18,ESE,121,0.0,0.0,83,0.00,,,0.00,0,Wunderground v.1.15,2013-03-11 10:24:00,
2013-03-11 03:30:00,44.5,39.3,30.18,ESE,121,0.0,0.0,82,0.00,,,0.00,0,Wunderground v.1.15,2013-03-11 10:30:00,
2013-03-11 03:38:00,44.4,39.2,30.18,ESE,121,0.0,0.0,82,0.00,,,0.00,0,Wunderground v.1.15,2013-03-11 10:38:00,
2013-03-11 03:44:00,44.4,39.2,30.18,ESE,121,0.0,0.0,82,0.00,,,0.00,0,Wunderground v.1.15,2013-03-11 10:44:00,
2013-03-11 03:50:00,44.2,39.1,30.18,ESE,121,0.0,0.0,82,0.00,,,0.00,0,Wunderground v.1.15,2013-03-11 10:50:00,
2013-03-11 03:58:00,44.0,38.5,30.18,ESE,121,0.0,0.0,81,0.00,,,0.00,0,Wunderground v.1.15,2013-03-11 10:58:00,
2013-03-11 04:04:00,43.8,38.7,30.18,ESE,121,0.0,0.0,82,0.00,,,0.00,0,Wunderground v.1.15,2013-03-11 11:04:00,
2013-03-11 04:10:00,43.7,38.6,30.18,ESE,121,0.0,0.0,82,0.00,,,0.00,0,Wunderground v.1.15,2013-03-11 11:10:00,
2013-03-11 04:16:00,43.6,38.5,30.18,ESE,121,0.0,0.0,82,0.00,,,0.00,0,Wunderground v.1.15,2013-03-11 11:16:00,
2013-03-11 04:22:00,43.5,38.4,30.18,ESE,121,0.0,0.0,82,0.00,,,0.00,0,Wunderground v.1.15,2013-03-11 11:22:00,
2013-03-11 04:28:00,43.5,38.4,30.18,ESE,121,0.0,0.0,82,0.00,,,0.00,0,Wunderground v.1.15,2013-03-11 11:28:00,
2013-03-11 04:34:00,43.5,38.7,30.18,ESE,121,0.0,0.0,83,0.00,,,0.00,0,Wunderground v.1.15,2013-03-11 11:34:00,
2013-03-11 04:40:00,43.3,38.5,30.18,ESE,121,0.0,0.0,83,0.00,,,0.00,0,Wunderground v.1.15,2013-03-11 11:40:00,
2013-03-11 04:48:00,43.3,38.5,30.18,ESE,121,0.0,0.0,83,0.00,,,0.00,0,Wunderground v.1.15,2013-03-11 11:48:00,
2013-03-11 04:54:00,43.3,38.5,30.17,ESE,119,0.0,0.0,83,0.00,,,0.00,0,Wunderground v.1.15,2013-03-11 11:54:00,
2013-03-11 05:00:00,43.3,38.5,30.18,ESE,119,0.0,0.0,83,0.00,,,0.00,0,Wunderground v.1.15,2013-03-11 12:00:00,
2013-03-11 05:08:00,43.4,38.6,30.18,ESE,114,0.0,0.0,83,0.00,,,0.00,0,Wunderground v.1.15,2013-03-11 12:08:00,
2013-03-11 05:14:00,43.4,38.6,30.18,ESE,109,0.0,0.0,83,0.00,,,0.00,0,Wunderground v.1.15,2013-03-11 12:14:00,
2013-03-11 05:20:00,43.5,38.7,30.18,East,88,0.0,0.0,83,0.00,,,0.00,0,Wunderground v.1.15,2013-03-11 12:20:00,
2013-03-11 05:28:00,43.5,38.7,30.18,East,86,0.0,0.0,83,0.00,,,0.00,0,Wunderground v.1.15,2013-03-11 12:28:00,
2013-03-11 05:34:00,43.5,38.7,30.18,East,86,0.0,0.0,83,0.00,,,0.00,0,Wunderground v.1.15,2013-03-11 12:34:00,
2013-03-11 05:40:00,43.5,38.7,30.18,East,82,0.0,0.0,83,0.00,,,0.00,0,Wunderground v.1.15,2013-03-11 12:40:00,
2013-03-11 05:46:00,43.4,38.6,30.19,East,82,0.0,0.0,83,0.00,,,0.00,0,Wunderground v.1.15,2013-03-11 12:46:00,
2013-03-11 05:52:00,43.4,38.6,30.19,East,80,0.0,0.0,83,0.00,,,0.00,0,Wunderground v.1.15,2013-03-11 12:52:00,
2013-03-11 05:58:00,43.4,38.9,30.19,East,79,0.0,0.0,84,0.00,,,0.00,0,Wunderground v.1.15,2013-03-11 12:58:00,
2013-03-11 06:04:00,43.5,39.0,30.19,East,79,0.0,0.0,84,0.00,,,0.00,0,Wunderground v.1.15,2013-03-11 13:04:00,
2013-03-11 06:10:00,43.5,39.0,30.19,East,79,0.0,0.0,84,0.00,,,0.00,0,Wunderground v.1.15,2013-03-11 13:10:00,
2013-03-11 06:18:00,43.5,39.0,30.19,East,79,0.0,0.0,84,0.00,,,0.00,0,Wunderground v.1.15,2013-03-11 13:18:00,
2013-03-11 06:24:00,43.4,38.9,30.19,East,79,0.0,0.0,84,0.00,,,0.00,0,Wunderground v.1.15,2013-03-11 13:24:00,
2013-03-11 06:30:00,43.3,38.8,30.19,East,79,0.0,0.0,84,0.00,,,0.00,0,Wunderground v.1.15,2013-03-11 13:30:00,
2013-03-11 06:36:00,43.5,39.0,30.19,ENE,78,0.0,0.0,84,0.00,,,0.00,0,Wunderground v.1.15,2013-03-11 13:36:00,
2013-03-11 06:42:00,43.6,39.1,30.19,ENE,78,0.0,0.0,84,0.00,,,0.00,0,Wunderground v.1.15,2013-03-11 13:42:00,
2013-03-11 06:48:00,43.6,39.1,30.19,ENE,78,0.0,0.0,84,0.00,,,0.00,0,Wunderground v.1.15,2013-03-11 13:48:00,
2013-03-11 06:54:00,43.5,39.0,30.19,ENE,78,0.0,0.0,84,0.00,,,0.00,0,Wunderground v.1.15,2013-03-11 13:54:00,
2013-03-11 07:00:00,43.5,39.0,30.19,ENE,78,0.0,0.0,84,0.00,,,0.00,0,Wunderground v.1.15,2013-03-11 14:00:00,
2013-03-11 07:06:00,43.4,38.9,30.19,ENE,78,0.0,0.0,84,0.00,,,0.00,0,Wunderground v.1.15,2013-03-11 14:06:00,
2013-03-11 07:12:00,43.3,38.8,30.19,ENE,78,0.0,0.0,84,0.00,,,0.00,0,Wunderground v.1.15,2013-03-11 14:12:00,
2013-03-11 07:18:00,43.2,39.0,30.19,ENE,78,0.0,0.0,85,0.00,,,0.00,5,Wunderground v.1.15,2013-03-11 14:18:00,
2013-03-11 07:24:00,43.1,38.9,30.19,ENE,78,0.0,0.0,85,0.00,,,0.00,7,Wunderground v.1.15,2013-03-11 14:24:00,
2013-03-11 07:30:00,43.1,38.9,30.18,ENE,78,0.0,0.0,85,0.00,,,0.00,12,Wunderground v.1.15,2013-03-11 14:30:00,
2013-03-11 07:36:00,43.2,39.0,30.19,ENE,78,0.0,0.0,85,0.00,,,0.00,19,Wunderground v.1.15,2013-03-11 14:36:00,
2013-03-11 07:42:00,43.2,39.0,30.19,ENE,78,0.0,0.0,85,0.00,,,0.00,25,Wunderground v.1.15,2013-03-11 14:42:00,
2013-03-11 07:48:00,43.4,39.5,30.19,ENE,78,0.0,0.0,86,0.00,,,0.00,28,Wunderground v.1.15,2013-03-11 14:48:00,
2013-03-11 07:54:00,43.4,39.5,30.19,ENE,78,0.0,0.0,86,0.00,,,0.00,39,Wunderground v.1.15,2013-03-11 14:54:00,
2013-03-11 08:00:00,43.7,39.8,30.19,ENE,71,0.0,0.0,86,0.00,,,0.00,51,Wunderground v.1.15,2013-03-11 15:00:00,
2013-03-11 08:06:00,44.3,40.4,30.19,ENE,71,0.0,0.0,86,0.00,,,0.00,63,Wunderground v.1.15,2013-03-11 15:06:00,
2013-03-11 08:12:00,44.9,41.0,30.19,ENE,70,0.0,0.0,86,0.00,,,0.00,79,Wunderground v.1.15,2013-03-11 15:12:00,
2013-03-11 08:18:00,45.6,41.7,30.19,ENE,70,0.0,0.0,86,0.00,,,0.00,97,Wunderground v.1.15,2013-03-11 15:18:00,
2013-03-11 08:24:00,46.2,41.9,30.19,ENE,70,0.0,0.0,85,0.00,,,0.00,114,Wunderground v.1.15,2013-03-11 15:24:00,
2013-03-11 08:30:00,47.0,42.4,30.19,ENE,70,0.0,0.0,84,0.00,,,0.00,132,Wunderground v.1.15,2013-03-11 15:30:00,
2013-03-11 08:38:00,48.0,43.1,30.19,ENE,70,0.0,0.0,83,0.00,,,0.00,172,Wunderground v.1.15,2013-03-11 15:38:00,
2013-03-11 08:44:00,48.7,43.1,30.20,ENE,70,0.0,0.0,81,0.00,,,0.00,197,Wunderground v.1.15,2013-03-11 15:44:00,
2013-03-11 08:50:00,49.1,43.5,30.19,ENE,70,0.0,0.0,81,0.00,,,0.00,223,Wunderground v.1.15,2013-03-11 15:50:00,
2013-03-11 08:56:00,49.8,43.5,30.19,ENE,68,0.0,0.0,79,0.00,,,0.00,250,Wunderground v.1.15,2013-03-11 15:56:00,
2013-03-11 09:02:00,50.8,44.2,30.20,ENE,71,0.0,0.0,78,0.00,,,0.00,271,Wunderground v.1.15,2013-03-11 16:02:00,
2013-03-11 09:08:00,51.6,44.3,30.20,ENE,71,0.0,0.0,76,0.00,,,0.00,287,Wunderground v.1.15,2013-03-11 16:08:00,
2013-03-11 09:14:00,52.0,44.3,30.20,ENE,71,0.0,0.0,75,0.00,,,0.00,301,Wunderground v.1.15,2013-03-11 16:14:00,
2013-03-11 09:20:00,52.7,44.6,30.20,ENE,70,0.0,0.0,74,0.00,,,0.00,327,Wunderground v.1.15,2013-03-11 16:20:00,
2013-03-11 09:28:00,53.3,44.1,30.20,ENE,69,0.0,0.0,71,0.00,,,0.00,353,Wunderground v.1.15,2013-03-11 16:28:00,
2013-03-11 09:34:00,53.8,44.6,30.20,ENE,69,0.0,0.0,71,0.00,,,0.00,374,Wunderground v.1.15,2013-03-11 16:34:00,
2013-03-11 09:40:00,54.4,44.8,30.20,ENE,69,0.0,0.0,70,0.00,,,0.00,394,Wunderground v.1.15,2013-03-11 16:40:00,
2013-03-11 09:48:00,55.1,45.1,30.20,ENE,69,0.0,0.0,69,0.00,,,0.00,418,Wunderground v.1.15,2013-03-11 16:48:00,
2013-03-11 09:54:00,55.9,45.5,30.20,ENE,69,0.0,0.0,68,0.00,,,0.00,438,Wunderground v.1.15,2013-03-11 16:54:00,
2013-03-11 10:00:00,55.9,45.1,30.20,ENE,69,0.0,0.0,67,0.00,,,0.00,455,Wunderground v.1.15,2013-03-11 17:00:00,
2013-03-11 10:06:00,56.4,45.6,30.20,ENE,64,0.0,0.0,67,0.00,,,0.00,475,Wunderground v.1.15,2013-03-11 17:06:00,
2013-03-11 10:12:00,56.6,45.8,30.20,ENE,62,0.0,0.0,67,0.00,,,0.00,494,Wunderground v.1.15,2013-03-11 17:12:00,
2013-03-11 10:18:00,57.0,46.1,30.19,NE,55,0.0,0.0,67,0.00,,,0.00,513,Wunderground v.1.15,2013-03-11 17:18:00,
2013-03-11 10:24:00,57.3,46.4,30.19,East,98,0.0,0.0,67,0.00,,,0.00,529,Wunderground v.1.15,2013-03-11 17:24:00,
2013-03-11 10:30:00,58.3,47.0,30.19,East,86,0.0,0.0,66,0.00,,,0.00,548,Wunderground v.1.15,2013-03-11 17:30:00,
2013-03-11 10:36:00,59.0,47.2,30.19,East,84,0.0,0.0,65,0.00,,,0.00,563,Wunderground v.1.15,2013-03-11 17:36:00,
2013-03-11 10:42:00,59.5,46.9,30.19,North,355,0.0,0.0,63,0.00,,,0.00,582,Wunderground v.1.15,2013-03-11 17:42:00,
2013-03-11 10:48:00,59.6,46.6,30.18,East,98,0.0,0.0,62,0.00,,,0.00,599,Wunderground v.1.15,2013-03-11 17:48:00,
2013-03-11 10:54:00,60.4,46.9,30.18,East,96,0.0,0.0,61,0.00,,,0.00,617,Wunderground v.1.15,2013-03-11 17:54:00,
2013-03-11 11:00:00,61.6,47.1,30.18,ENE,78,0.0,0.0,59,0.00,,,0.00,633,Wunderground v.1.15,2013-03-11 18:00:00,
2013-03-11 11:08:00,62.5,48.0,30.18,ENE,78,0.0,1.0,59,0.00,,,0.00,640,Wunderground v.1.15,2013-03-11 18:08:00,
2013-03-11 11:14:00,63.0,47.5,30.18,East,80,0.0,0.0,57,0.00,,,0.00,661,Wunderground v.1.15,2013-03-11 18:14:00,
2013-03-11 11:20:00,63.4,46.9,30.18,ENE,59,0.0,0.0,55,0.00,,,0.00,664,Wunderground v.1.15,2013-03-11 18:20:00,
2013-03-11 11:26:00,63.7,47.7,30.18,ENE,59,0.0,0.0,56,0.00,,,0.00,693,Wunderground v.1.15,2013-03-11 18:26:00,
2013-03-11 11:32:00,63.9,46.9,30.17,NNE,17,0.0,0.0,54,0.00,,,0.00,703,Wunderground v.1.15,2013-03-11 18:32:00,
2013-03-11 11:38:00,63.5,46.1,30.17,North,5,0.0,0.0,53,0.00,,,0.00,715,Wunderground v.1.15,2013-03-11 18:38:00,
2013-03-11 11:44:00,63.8,46.3,30.17,SW,227,0.0,0.0,53,0.00,,,0.00,728,Wunderground v.1.15,2013-03-11 18:44:00,
2013-03-11 11:50:00,64.1,46.6,30.17,WNW,292,0.0,0.0,53,0.00,,,0.00,740,Wunderground v.1.15,2013-03-11 18:50:00,
2013-03-11 11:56:00,64.8,46.2,30.17,West,264,0.0,0.0,51,0.00,,,0.00,751,Wunderground v.1.15,2013-03-11 18:56:00,
2013-03-11 12:02:00,65.3,46.2,30.17,West,264,0.0,1.0,50,0.00,,,0.00,752,Wunderground v.1.15,2013-03-11 19:02:00,
2013-03-11 12:08:00,66.1,46.4,30.16,NE,39,0.0,1.0,49,0.00,,,0.00,758,Wunderground v.1.15,2013-03-11 19:08:00,
2013-03-11 12:14:00,65.9,45.6,30.16,NNW,346,0.0,0.0,48,0.00,,,0.00,754,Wunderground v.1.15,2013-03-11 19:14:00,
2013-03-11 12:20:00,66.3,47.1,30.16,NNW,347,0.0,0.0,50,0.00,,,0.00,779,Wunderground v.1.15,2013-03-11 19:20:00,
2013-03-11 12:26:00,66.9,46.6,30.15,North,360,0.0,0.0,48,0.00,,,0.00,788,Wunderground v.1.15,2013-03-11 19:26:00,
2013-03-11 12:32:00,67.6,46.6,30.15,NE,43,0.0,0.0,47,0.00,,,0.00,796,Wunderground v.1.15,2013-03-11 19:32:00,
2013-03-11 12:38:00,67.9,48.0,30.15,SE,144,0.0,0.0,49,0.00,,,0.00,789,Wunderground v.1.15,2013-03-11 19:38:00,
2013-03-11 12:44:00,68.3,47.3,30.15,SW,221,1.0,2.0,47,0.00,,,0.00,756,Wunderground v.1.15,2013-03-11 19:44:00,
2013-03-11 12:50:00,68.4,46.8,30.14,SSW,194,0.0,4.0,46,0.00,,,0.00,823,Wunderground v.1.15,2013-03-11 19:50:00,
2013-03-11 12:58:00,67.9,46.3,30.14,South,187,1.0,4.0,46,0.00,,,0.00,795,Wunderground v.1.15,2013-03-11 19:58:00,
2013-03-11 13:04:00,67.8,46.8,30.13,South,187,0.0,3.0,47,0.00,,,0.00,735,Wunderground v.1.15,2013-03-11 20:04:00,
2013-03-11 13:10:00,68.2,47.2,30.13,South,187,0.0,0.0,47,0.00,,,0.00,773,Wunderground v.1.15,2013-03-11 20:10:00,
2013-03-11 13:18:00,68.5,45.7,30.13,SW,216,0.0,0.0,44,0.00,,,0.00,838,Wunderground v.1.15,2013-03-11 20:18:00,
2013-03-11 13:24:00,68.9,46.7,30.12,NNW,341,0.0,0.0,45,0.00,,,0.00,874,Wunderground v.1.15,2013-03-11 20:24:00,
2013-03-11 13:30:00,70.0,45.2,30.12,NE,37,1.0,2.0,41,0.00,,,0.00,863,Wunderground v.1.15,2013-03-11 20:30:00,
2013-03-11 13:38:00,70.9,42.6,30.11,NNW,327,2.0,7.0,36,0.00,,,0.00,819,Wunderground v.1.15,2013-03-11 20:38:00,
2013-03-11 13:44:00,71.1,44.2,30.11,NNE,19,2.0,5.0,38,0.00,,,0.00,842,Wunderground v.1.15,2013-03-11 20:44:00,
2013-03-11 13:50:00,71.7,44.7,30.10,West,279,1.0,1.0,38,0.00,,,0.00,800,Wunderground v.1.15,2013-03-11 20:50:00,
2013-03-11 13:56:00,72.2,44.5,30.10,NNW,344,2.0,3.0,37,0.00,,,0.00,823,Wunderground v.1.15,2013-03-11 20:56:00,
2013-03-11 14:02:00,71.7,43.3,30.09,NE,41,2.0,5.0,36,0.00,,,0.00,819,Wunderground v.1.15,2013-03-11 21:02:00,
2013-03-11 14:08:00,71.9,44.2,30.09,NNW,327,3.0,5.0,37,0.00,,,0.00,782,Wunderground v.1.15,2013-03-11 21:08:00,
2013-03-11 14:14:00,72.3,43.8,30.09,NNE,26,1.0,2.0,36,0.00,,,0.00,747,Wunderground v.1.15,2013-03-11 21:14:00,
2013-03-11 14:20:00,72.6,44.1,30.09,NW,308,2.0,4.0,36,0.00,,,0.00,773,Wunderground v.1.15,2013-03-11 21:20:00,
2013-03-11 14:26:00,71.9,43.5,30.09,NW,315,2.0,4.0,36,0.00,,,0.00,721,Wunderground v.1.15,2013-03-11 21:26:00,
2013-03-11 14:32:00,72.3,43.8,30.08,NNW,339,1.0,1.0,36,0.00,,,0.00,780,Wunderground v.1.15,2013-03-11 21:32:00,
2013-03-11 14:38:00,72.3,44.6,30.08,North,355,1.0,1.0,37,0.00,,,0.00,647,Wunderground v.1.15,2013-03-11 21:38:00,
2013-03-11 14:44:00,72.6,43.4,30.08,NW,323,0.0,1.0,35,0.00,,,0.00,640,Wunderground v.1.15,2013-03-11 21:44:00,
2013-03-11 14:50:00,72.6,44.1,30.08,NW,323,1.0,1.0,36,0.00,,,0.00,677,Wunderground v.1.15,2013-03-11 21:50:00,
2013-03-11 14:56:00,73.0,43.7,30.07,NNW,338,1.0,3.0,35,0.00,,,0.00,700,Wunderground v.1.15,2013-03-11 21:56:00,
2013-03-11 15:02:00,73.1,43.8,30.07,NW,313,1.0,2.0,35,0.00,,,0.00,663,Wunderground v.1.15,2013-03-11 22:02:00,
2013-03-11 15:08:00,73.1,44.5,30.07,West,277,1.0,9.0,36,0.00,,,0.00,575,Wunderground v.1.15,2013-03-11 22:08:00,
2013-03-11 15:14:00,73.1,43.8,30.07,WNW,286,1.0,1.0,35,0.00,,,0.00,710,Wunderground v.1.15,2013-03-11 22:14:00,
2013-03-11 15:20:00,73.7,43.6,30.06,ESE,108,0.0,0.0,34,0.00,,,0.00,694,Wunderground v.1.15,2013-03-11 22:20:00,
2013-03-11 15:26:00,74.4,44.2,30.06,WSW,248,0.0,0.0,34,0.00,,,0.00,707,Wunderground v.1.15,2013-03-11 22:26:00,
2013-03-11 15:32:00,74.8,43.8,30.06,ENE,59,1.0,3.0,33,0.00,,,0.00,622,Wunderground v.1.15,2013-03-11 22:32:00,
2013-03-11 15:38:00,75.0,43.9,30.06,North,355,1.0,3.0,33,0.00,,,0.00,680,Wunderground v.1.15,2013-03-11 22:38:00,
2013-03-11 15:44:00,74.9,44.6,30.06,NE,41,1.0,2.0,34,0.00,,,0.00,664,Wunderground v.1.15,2013-03-11 22:44:00,
2013-03-11 15:50:00,75.2,44.1,30.06,NE,42,1.0,1.0,33,0.00,,,0.00,649,Wunderground v.1.15,2013-03-11 22:50:00,
2013-03-11 15:56:00,75.4,44.3,30.06,NNW,339,1.0,4.0,33,0.00,,,0.00,624,Wunderground v.1.15,2013-03-11 22:56:00,
2013-03-11 16:02:00,75.7,46.1,30.05,NNW,337,2.0,7.0,35,0.00,,,0.00,594,Wunderground v.1.15,2013-03-11 23:02:00,
2013-03-11 16:08:00,76.1,45.7,30.05,WSW,238,1.0,7.0,34,0.00,,,0.00,513,Wunderground v.1.15,2013-03-11 23:08:00,
2013-03-11 16:14:00,75.7,45.3,30.05,West,275,1.0,2.0,34,0.00,,,0.00,559,Wunderground v.1.15,2013-03-11 23:14:00,
2013-03-11 16:20:00,76.3,45.9,30.05,NW,306,1.0,4.0,34,0.00,,,0.00,563,Wunderground v.1.15,2013-03-11 23:20:00,
2013-03-11 16:26:00,76.1,45.7,30.05,WNW,284,1.0,4.0,34,0.00,,,0.00,543,Wunderground v.1.15,2013-03-11 23:26:00,
2013-03-11 16:32:00,75.9,45.5,30.04,WSW,252,1.0,1.0,34,0.00,,,0.00,499,Wunderground v.1.15,2013-03-11 23:32:00,
2013-03-11 16:38:00,75.8,44.6,30.04,NNW,339,1.0,3.0,33,0.00,,,0.00,508,Wunderground v.1.15,2013-03-11 23:38:00,
2013-03-11 16:44:00,75.9,45.5,30.04,NNW,335,0.0,0.0,34,0.00,,,0.00,478,Wunderground v.1.15,2013-03-11 23:44:00,
2013-03-11 16:50:00,76.0,44.8,30.04,ENE,69,0.0,0.0,33,0.00,,,0.00,461,Wunderground v.1.15,2013-03-11 23:50:00,
2013-03-11 16:58:00,76.0,45.6,30.03,NE,53,0.0,0.0,34,0.00,,,0.00,454,Wunderground v.1.15,2013-03-11 23:58:00,
2013-03-11 17:04:00,76.2,45.0,30.03,NE,42,0.0,7.0,33,0.00,,,0.00,392,Wunderground v.1.15,2013-03-12 00:04:00,
2013-03-11 17:10:00,76.7,44.6,30.03,NE,42,0.0,0.0,32,0.00,,,0.00,352,Wunderground v.1.15,2013-03-12 00:10:00,
2013-03-11 17:16:00,76.5,46.0,30.03,East,85,0.0,2.0,34,0.00,,,0.00,387,Wunderground v.1.15,2013-03-12 00:16:00,
2013-03-11 17:22:00,76.4,45.2,30.03,East,87,0.0,0.0,33,0.00,,,0.00,253,Wunderground v.1.15,2013-03-12 00:22:00,
2013-03-11 17:28:00,76.2,45.8,30.03,East,88,0.0,0.0,34,0.00,,,0.00,295,Wunderground v.1.15,2013-03-12 00:28:00,
2013-03-11 17:34:00,76.2,45.0,30.03,East,88,0.0,0.0,33,0.00,,,0.00,258,Wunderground v.1.15,2013-03-12 00:34:00,
2013-03-11 17:40:00,76.2,45.0,30.02,East,88,0.0,0.0,33,0.00,,,0.00,269,Wunderground v.1.15,2013-03-12 00:40:00,
2013-03-11 17:46:00,75.8,45.4,30.02,East,88,0.0,0.0,34,0.00,,,0.00,195,Wunderground v.1.15,2013-03-12 00:46:00,
2013-03-11 17:52:00,75.5,45.2,30.02,East,88,0.0,0.0,34,0.00,,,0.00,169,Wunderground v.1.15,2013-03-12 00:52:00,
2013-03-11 17:58:00,75.2,45.7,30.02,East,88,0.0,0.0,35,0.00,,,0.00,146,Wunderground v.1.15,2013-03-12 00:58:00,
2013-03-11 18:04:00,73.9,49.4,30.02,ESE,112,2.0,7.0,42,0.00,,,0.00,155,Wunderground v.1.15,2013-03-12 01:04:00,
2013-03-11 18:10:00,72.5,50.5,30.02,ESE,114,5.0,5.0,46,0.00,,,0.00,109,Wunderground v.1.15,2013-03-12 01:10:00,
2013-03-11 18:16:00,71.8,50.5,30.02,ESE,115,4.0,5.0,47,0.00,,,0.00,102,Wunderground v.1.15,2013-03-12 01:16:00,
2013-03-11 18:22:00,71.3,50.0,30.02,ESE,116,3.0,4.0,47,0.00,,,0.00,116,Wunderground v.1.15,2013-03-12 01:22:00,
2013-03-11 18:28:00,70.9,50.2,30.02,SE,132,3.0,5.0,48,0.00,,,0.00,102,Wunderground v.1.15,2013-03-12 01:28:00,
2013-03-11 18:34:00,70.6,50.0,30.02,SE,134,3.0,5.0,48,0.00,,,0.00,65,Wunderground v.1.15,2013-03-12 01:34:00,
2013-03-11 18:40:00,70.2,49.6,30.02,SE,126,3.0,3.0,48,0.00,,,0.00,56,Wunderground v.1.15,2013-03-12 01:40:00,
2013-03-11 18:48:00,69.6,49.6,30.02,SE,127,2.0,3.0,49,0.00,,,0.00,30,Wunderground v.1.15,2013-03-12 01:48:00,
2013-03-11 18:54:00,69.1,49.1,30.02,SE,127,0.0,2.0,49,0.00,,,0.00,21,Wunderground v.1.15,2013-03-12 01:54:00,
2013-03-11 19:00:00,68.5,49.1,30.02,SE,125,0.0,0.0,50,0.00,,,0.00,16,Wunderground v.1.15,2013-03-12 02:00:00,
2013-03-11 19:08:00,67.6,49.3,30.02,SE,125,0.0,7.0,52,0.00,,,0.00,7,Wunderground v.1.15,2013-03-12 02:08:00,
2013-03-11 19:14:00,67.0,49.3,30.01,SE,125,0.0,0.0,53,0.00,,,0.00,0,Wunderground v.1.15,2013-03-12 02:14:00,
2013-03-11 19:20:00,66.3,49.2,30.02,SE,125,0.0,0.0,54,0.00,,,0.00,0,Wunderground v.1.15,2013-03-12 02:20:00,
2013-03-11 19:28:00,65.5,48.9,30.01,SE,125,0.0,0.0,55,0.00,,,0.00,0,Wunderground v.1.15,2013-03-12 02:28:00,
2013-03-11 19:34:00,64.8,48.7,30.01,SE,125,0.0,0.0,56,0.00,,,0.00,0,Wunderground v.1.15,2013-03-12 02:34:00,
2013-03-11 19:40:00,64.2,48.2,30.01,SE,125,0.0,0.0,56,0.00,,,0.00,0,Wunderground v.1.15,2013-03-12 02:40:00,
2013-03-11 19:46:00,63.6,48.1,30.01,SE,125,0.0,0.0,57,0.00,,,0.00,0,Wunderground v.1.15,2013-03-12 02:46:00,
2013-03-11 19:52:00,63.1,47.6,30.02,SE,125,0.0,0.0,57,0.00,,,0.00,0,Wunderground v.1.15,2013-03-12 02:52:00,
2013-03-11 19:58:00,62.6,47.6,30.02,SE,125,0.0,0.0,58,0.00,,,0.00,0,Wunderground v.1.15,2013-03-12 02:58:00,
2013-03-11 20:04:00,62.1,47.6,30.02,SE,125,0.0,9.0,59,0.00,,,0.00,0,Wunderground v.1.15,2013-03-12 03:04:00,
2013-03-11 20:10:00,61.8,47.8,30.02,SE,125,0.0,0.0,60,0.00,,,0.00,0,Wunderground v.1.15,2013-03-12 03:10:00,
2013-03-11 20:16:00,61.7,47.7,30.02,SE,125,0.0,0.0,60,0.00,,,0.00,0,Wunderground v.1.15,2013-03-12 03:16:00,
2013-03-11 20:22:00,61.6,47.6,30.02,SE,125,0.0,1.0,60,0.00,,,0.00,0,Wunderground v.1.15,2013-03-12 03:22:00,
2013-03-11 20:28:00,61.4,47.8,30.02,SE,125,0.0,2.0,61,0.00,,,0.00,0,Wunderground v.1.15,2013-03-12 03:28:00,
2013-03-11 20:34:00,61.3,47.7,30.02,SE,125,0.0,0.0,61,0.00,,,0.00,0,Wunderground v.1.15,2013-03-12 03:34:00,
2013-03-11 20:40:00,61.0,47.4,30.02,SE,125,0.0,0.0,61,0.00,,,0.00,0,Wunderground v.1.15,2013-03-12 03:40:00,
2013-03-11 20:46:00,60.7,47.2,30.02,SE,125,0.0,0.0,61,0.00,,,0.00,0,Wunderground v.1.15,2013-03-12 03:46:00,
2013-03-11 20:52:00,60.4,47.3,30.02,SE,125,0.0,0.0,62,0.00,,,0.00,0,Wunderground v.1.15,2013-03-12 03:52:00,
2013-03-11 20:58:00,60.2,47.1,30.02,SE,125,0.0,0.0,62,0.00,,,0.00,0,Wunderground v.1.15,2013-03-12 03:58:00,
2013-03-11 21:00:00,60.1,47.0,30.02,SE,125,0.0,0.0,62,0.00,,,0.00,0,Wunderground v.1.15,2013-03-12 04:00:00,
2013-03-11 21:02:00,60.0,46.9,30.02,SE,125,0.0,0.0,62,0.00,,,0.00,0,Wunderground v.1.15,2013-03-12 04:02:00,
2013-03-11 21:08:00,59.6,47.0,30.02,SE,125,0.0,0.0,63,0.00,,,0.00,0,Wunderground v.1.15,2013-03-12 04:08:00,
2013-03-11 21:14:00,59.2,46.6,30.02,SE,125,0.0,0.0,63,0.00,,,0.00,0,Wunderground v.1.15,2013-03-12 04:14:00,
2013-03-11 21:20:00,58.6,46.9,30.03,SE,125,0.0,0.0,65,0.00,,,0.00,0,Wunderground v.1.15,2013-03-12 04:20:00,
2013-03-11 21:26:00,58.5,46.8,30.03,SE,125,0.0,0.0,65,0.00,,,0.00,0,Wunderground v.1.15,2013-03-12 04:26:00,
2013-03-11 21:30:00,58.1,46.8,30.02,SE,125,0.0,0.0,66,0.00,,,0.00,0,Wunderground v.1.15,2013-03-12 04:30:00,
2013-03-11 21:36:00,57.7,46.4,30.03,SE,125,0.0,0.0,66,0.00,,,0.00,0,Wunderground v.1.15,2013-03-12 04:36:00,
2013-03-11 21:42:00,57.4,46.5,30.03,SE,125,0.0,0.0,67,0.00,,,0.00,0,Wunderground v.1.15,2013-03-12 04:42:00,
2013-03-11 21:48:00,57.1,46.2,30.03,SE,125,0.0,0.0,67,0.00,,,0.00,0,Wunderground v.1.15,2013-03-12 04:48:00,
2013-03-11 21:54:00,56.8,46.3,30.03,SE,125,0.0,0.0,68,0.00,,,0.00,0,Wunderground v.1.15,2013-03-12 04:54:00,
2013-03-11 22:00:00,56.5,46.4,30.03,SE,125,0.0,0.0,69,0.00,,,0.00,0,Wunderground v.1.15,2013-03-12 05:00:00,
2013-03-11 22:06:00,56.3,46.6,30.03,SE,125,0.0,3.0,70,0.00,,,0.00,0,Wunderground v.1.15,2013-03-12 05:06:00,
2013-03-11 22:12:00,56.1,46.4,30.03,SE,125,0.0,0.0,70,0.00,,,0.00,0,Wunderground v.1.15,2013-03-12 05:12:00,
2013-03-11 22:18:00,55.9,46.3,30.03,SE,125,0.0,0.0,70,0.00,,,0.00,0,Wunderground v.1.15,2013-03-12 05:18:00,
2013-03-11 22:24:00,55.7,46.1,30.03,SE,125,0.0,0.0,70,0.00,,,0.00,0,Wunderground v.1.15,2013-03-12 05:24:00,
2013-03-11 22:30:00,55.5,45.9,30.03,SE,125,0.0,0.0,70,0.00,,,0.00,0,Wunderground v.1.15,2013-03-12 05:30:00,
2013-03-11 22:36:00,55.4,45.8,30.03,SE,125,0.0,0.0,70,0.00,,,0.00,0,Wunderground v.1.15,2013-03-12 05:36:00,
2013-03-11 22:42:00,55.2,45.6,30.03,SE,125,0.0,0.0,70,0.00,,,0.00,0,Wunderground v.1.15,2013-03-12 05:42:00,
2013-03-11 22:48:00,55.0,45.8,30.03,SE,125,0.0,0.0,71,0.00,,,0.00,0,Wunderground v.1.15,2013-03-12 05:48:00,
2013-03-11 22:54:00,54.8,45.6,30.03,SE,125,0.0,0.0,71,0.00,,,0.00,0,Wunderground v.1.15,2013-03-12 05:54:00,
2013-03-11 23:00:00,54.7,45.5,30.03,SE,125,0.0,0.0,71,0.00,,,0.00,0,Wunderground v.1.15,2013-03-12 06:00:00,
2013-03-11 23:06:00,54.6,45.4,30.03,SE,125,0.0,0.0,71,0.00,,,0.00,0,Wunderground v.1.15,2013-03-12 06:06:00,
2013-03-11 23:12:00,54.5,45.3,30.03,SE,125,0.0,0.0,71,0.00,,,0.00,0,Wunderground v.1.15,2013-03-12 06:12:00,
2013-03-11 23:18:00,54.2,45.4,30.03,SE,125,0.0,0.0,72,0.00,,,0.00,0,Wunderground v.1.15,2013-03-12 06:18:00,
2013-03-11 23:24:00,53.9,45.1,30.03,SE,125,0.0,0.0,72,0.00,,,0.00,0,Wunderground v.1.15,2013-03-12 06:24:00,
2013-03-11 23:30:00,53.6,45.2,30.03,SE,125,0.0,0.0,73,0.00,,,0.00,0,Wunderground v.1.15,2013-03-12 06:30:00,
2013-03-11 23:36:00,53.4,45.0,30.03,SE,125,0.0,0.0,73,0.00,,,0.00,0,Wunderground v.1.15,2013-03-12 06:36:00,
2013-03-11 23:42:00,53.3,45.2,30.03,SE,125,0.0,0.0,74,0.00,,,0.00,0,Wunderground v.1.15,2013-03-12 06:42:00,
2013-03-11 23:48:00,53.0,44.9,30.03,SE,125,0.0,0.0,74,0.00,,,0.00,0,Wunderground v.1.15,2013-03-12 06:48:00,
2013-03-11 23:54:00,52.6,44.5,30.03,SE,125,0.0,0.0,74,0.00,,,0.00,0,Wunderground v.1.15,2013-03-12 06:54:00,